YAOGAN-30 G

导读

YAOGAN-30 G(遥感三十号G卫星)是中国于2017年12月25日发射的遥感卫星,隶属于遥感三十号卫星系列,该卫星采用多星组网模式运行,主要任务是开展电磁环境探测及相关技术试验。作为中国遥感卫星体系的组成部分,它将为空间环境探测、科学试验提供数据支撑,助力相关航天技术验证与应用研究,发射任务的成功进一步完善了我国遥感卫星组网布局。

Basic Information
目录编号:
43081
目录名称:
YAOGAN-30 G
国际标识:
2017-085A
轨道中心:
EARTH
卫星名称:
YAOGAN-30 G
卫星全名:
--
卫星状态:
在轨 (已飞行3137 天)
发射日期:
2017-12-25 UTC
国别 :
中国 (CN)
星等 :
--
Orbit Information
数据来源 国际轨道数据 AOE轨道数据
星历时间 2026-07-27T21:06:45+0800
22小时前
查看轨道信息
2026-07-26T02:00:00+0800
2天前
查看轨道信息
半长轴 6936.343km 6936.361km
偏心率 0.0004286 0.0004122
轨道倾角 34.995° 34.997°
近地点辐角 150.083° 139.409°
升交点赤经 264.046° 274.988°
平近点角 210.012° 206.448°
近地点 555.233km 555.364km
远地点 561.179km 561.084km
周期 95.820分钟 95.820分钟
每日圈数 15.0282 15.028142
Detailed Information
使用方式:
暂无
2D Orbit Map
3D Orbit Map
Orbit Altitude Analysis Chart
Orbit Inclination Analysis Chart
Orbit Comprehensive Analysis Chart
View Comprehensive Chart